#timestamp,LO_Frequency,Hit 
1504353615.2,286046999.1,N
1504353635.0,286047001.9,N
1504353635.9,286047001.9,N
1504353655.8,286047002.3,N
1504353675.6,286047002.5,N
1504353695.4,286047000.1,N
1504353715.3,286047003.0,N
1504353735.1,286047001.4,N
1504353736.0,286047001.4,N
1504353755.8,286047002.5,N
1504353775.7,286046999.9,N
1504353795.5,286046998.9,N
1504353815.3,286046998.7,N
1504353835.2,286046995.4,N
1504353855.9,286047000.7,N
1504353875.7,286046998.3,N
1504353895.6,286046998.5,N
1504353915.4,286047001.1,N
1504353935.2,286046996.8,N
1504353955.0,286046997.0,N
1504353956.0,286046997.0,N
1504353975.8,286046995.6,N
1504353995.6,286046998.3,N
1504354015.4,286047001.3,N
1504354035.3,286047001.8,N
1504354055.1,286046998.1,N
1504354075.8,286046999.2,N
1504354095.7,286046997.3,N
1504354115.5,286046996.1,N
1504354135.3,286046997.9,N
1504354155.2,286046994.0,N
1504354175.9,286046996.1,N
1504354195.7,286046996.9,N
1504354215.6,286046997.0,N
1504354235.4,286046999.3,N
1504354255.2,286046996.8,N
1504354275.1,286046999.5,N
1504354276.0,286046999.5,N
1504354295.8,286046999.0,N
1504354315.6,286046998.9,N
1504354335.5,286046997.1,N
1504354355.3,286046995.6,N
1504354375.1,286046997.1,N
1504354395.9,286046996.1,N
1504354415.7,286046998.4,N
1504354435.5,286046999.5,N
1504354455.3,286046996.5,N
1504354475.2,286046996.9,N
1504354495.0,286046996.2,N
1504354495.9,286046996.2,N
1504354515.7,286046997.2,N
1504354535.6,286046999.3,N
1504354555.4,286046998.6,N
1504354575.2,286046997.8,N
1504354595.1,286046995.9,N
1504354596.0,286046995.9,N
1504354615.8,286046996.1,N
1504354635.6,286046991.7,P
1504354655.5,286046992.1,N
1504354675.3,286046994.3,N
1504354695.1,286046996.2,N
1504354715.9,286046997.3,N
1504354735.7,286046998.0,N
1504354755.5,286046997.5,N
1504354775.4,286046995.3,N
1504354795.2,286046996.9,N
1504354815.0,286046997.6,N
1504354815.9,286046997.6,N
1504354835.8,286046999.5,N
1504354855.6,286046997.1,N
1504354875.4,286046999.4,N
1504354895.3,286046993.5,N
1504354915.1,286046996.3,N
1504354916.0,286046996.3,N
1504354935.8,286046993.7,N
1504354955.7,286046993.4,P
1504354975.5,286046999.8,N
1504354995.3,286046996.7,N
1504355015.2,286046999.2,N
1504355035.9,286047001.2,N
1504355055.7,286047001.0,N
1504355075.6,286047000.3,N
1504355095.4,286047003.1,N
1504355115.2,286046999.8,N
1504355135.0,286047003.3,N
1504355135.9,286047003.3,N
1504355155.8,286047005.4,N
1504355175.6,286047000.0,N
1504355195.4,286046998.8,N
1504355215.3,286046998.9,N
1504355235.1,286046998.7,N
1504355255.8,286047000.6,N
1504355275.7,286047004.2,N
1504355295.5,286047000.7,N
1504355315.3,286046999.7,N
1504355335.2,286047001.9,N
1504355355.9,286046998.9,N
1504355375.7,286046996.9,N
1504355395.6,286046997.3,N
1504355415.4,286046995.8,N
1504355435.2,286046996.2,N
1504355455.1,286046994.9,N
1504355456.0,286046994.9,N
1504355475.8,286046997.5,N
1504355495.6,286046998.7,N
1504355515.4,286047001.6,N
1504355535.3,286047003.3,N
1504355555.1,286047004.8,N
1504355575.8,286047006.0,N
1504355595.7,286047005.5,N
1504355615.5,286047000.8,N
1504355635.3,286047001.1,N
1504355655.2,286046996.7,N
1504355675.9,286046999.6,N
1504355695.7,286047000.8,N
1504355715.6,286047000.6,N
1504355735.4,286047001.8,N
1504355755.2,286047004.4,N
1504355775.1,286047004.1,N
1504355776.0,286047004.1,N
1504355795.8,286047003.2,N
1504355815.6,286047002.5,N
1504355835.5,286047001.8,N
1504355855.3,286047001.7,N
1504355875.1,286046998.9,N
1504355895.9,286046997.2,N
1504355915.7,286046997.4,N
1504355935.5,286047000.4,N
1504355955.3,286047000.4,N
1504355975.2,286047001.2,N
1504355995.0,286046998.5,N
1504355995.9,286046998.5,N
1504356015.7,286046997.4,N
1504356035.6,286046999.5,N
1504356055.4,286046996.6,N
1504356075.2,286047001.2,N
1504356095.1,286046998.7,N
1504356096.0,286046998.7,N
1504356115.8,286046999.2,N
1504356135.6,286046994.9,N
1504356155.5,286046994.0,N
1504356175.3,286046995.8,N
1504356195.1,286046995.9,N
1504356215.9,286046999.4,N
1504356235.7,286047001.3,N
1504356255.5,286047001.7,N
1504356275.4,286047003.6,N
1504356295.2,286047003.0,N
1504356315.0,286047008.8,P
1504356315.9,286047008.8,N
1504356335.8,286047006.4,N
1504356355.6,286047010.3,N
1504356375.4,286047006.3,N
1504356395.3,286047006.0,N
1504356415.1,286047005.6,N
1504356416.0,286047005.6,N
1504356435.8,286047003.3,N
1504356455.7,286047005.3,N
1504356475.5,286047007.0,N
1504356495.3,286047005.7,N
1504356515.2,286047005.3,N
1504356535.9,286047003.2,N
1504356555.7,286047002.5,N
1504356575.5,286047001.2,N
1504356595.4,286047002.5,N
1504356615.2,286047006.8,N
1504356635.0,286047005.2,N
1504356635.9,286047005.2,N
1504356655.8,286047007.8,P
1504356675.6,286046998.3,N
1504356695.4,286047000.7,N
1504356715.3,286046996.5,N
1504356735.1,286046998.3,N
1504356755.8,286046997.6,N
1504356775.7,286046997.3,N
1504356795.5,286046999.4,N
1504356815.3,286046998.1,N
1504356835.2,286047001.1,N
1504356855.9,286046996.8,N
1504356875.7,286046995.3,N
1504356895.6,286046994.7,N
1504356915.4,286046994.7,N
1504356935.2,286046996.4,N
1504356955.1,286046997.6,N
1504356956.0,286046997.6,N
1504356975.8,286046993.7,N
1504356995.6,286046997.5,N
1504357015.4,286046993.3,N
1504357035.3,286046995.5,N
1504357055.1,286046997.3,N
1504357075.8,286046996.9,N
1504357095.7,286046997.1,N
1504357115.5,286046997.9,N
1504357135.3,286046996.4,N
1504357155.2,286046995.1,N
1504357175.9,286046994.9,N
1504357195.7,286046995.2,N
